Home   Weather   Shantou   Past weeks
Flag for China

Past Weather in Shantou, Guangdong, China — Yesterday and Last 2 Weeks

Now
70 °F

Clear.


Feels Like: 70 °F
Forecast: 83 / 67 °F
Wind: 3 mph from East

Location: Shantou Airport

Current Time: Oct 24, 2019 at 5:15:05 am

Latest Report: Oct 24, 2019 at 4:00 am


Visibility: 10 mi

Pressure: 29.95 "Hg

Humidity: 88%

Dew Point: 66 °F

Location of ShantouLocation

Past Weather in Shantou — Graph

°F

Shantou Temperature Yesterday

Maximum temperature yesterday: 84 °F (at 2:00 pm)
Minimum temperature yesterday: 66 °F (at 4:00 am)
Average temperature yesterday: 75 °F

High & Low Weather Summary for the Past Weeks

 TemperatureHumidityPressure
High91 °F (Oct 11, 1:00 pm)100% (Oct 9, 5:00 am)30.15 "Hg (Oct 9, 5:00 am)
Low64 °F (Oct 21, 3:00 am)35% (Oct 23, 2:00 pm)29.77 "Hg (Oct 11, 4:00 pm)
Average78 °F71%29.99 "Hg
* Reported Oct 9 4:00 am — Oct 24 4:00 am, Shantou. Weather by CustomWeather, © 2019

Note: Actual official high and low records may vary slightly from our data, if they occured in-between our weather recording intervals... More about our weather records

Advertising

Shantou Weather History for the Previous 24 Hours

Scroll right to see more
 ConditionsComfort  
Time TempWeatherWind HumidityBarometerVisibility
4:00 am
Thu, Oct 24
70 °FClear.3 mph88%29.95 "Hg10 mi
3:00 am72 °FClear.3 mph83%29.95 "Hg5 mi
2:00 am70 °FClear.No wind94%29.95 "Hg5 mi
1:00 am72 °FClear.1 mph88%29.95 "Hg10 mi
12:00 am73 °FClear.6 mph83%29.95 "Hg10 mi
11:00 pm
Wed, Oct 23
73 °FClear.3 mph78%29.95 "Hg10 mi
10:00 pm75 °FPassing clouds.6 mph74%29.95 "HgN/A
9:00 pm75 °FClear.6 mph74%29.95 "Hg10 mi
8:00 pm75 °FPassing clouds.8 mph74%29.95 "HgN/A
7:00 pm77 °FClear.3 mph65%29.92 "Hg10 mi
6:00 pm79 °FPassing clouds.6 mph61%29.89 "HgN/A
5:00 pm81 °FPassing clouds.6 mph54%29.89 "HgN/A
4:00 pm82 °FPassing clouds.6 mph48%29.86 "HgN/A
3:00 pm84 °FPassing clouds.3 mph40%29.86 "HgN/A
2:00 pm84 °FSunny.1 mph35%29.86 "Hg10 mi
1:00 pm82 °FPassing clouds.6 mph45%29.89 "HgN/A
12:00 pm81 °FPassing clouds.3 mph48%29.89 "HgN/A
11:00 am79 °FPassing clouds.6 mph54%29.92 "HgN/A
10:00 am77 °FPassing clouds.3 mph61%29.95 "HgN/A
9:00 am73 °FPassing clouds.6 mph74%29.95 "HgN/A
8:00 am70 °FClear.3 mph83%29.92 "Hg5 mi
7:00 am66 °FClear.No wind100%29.92 "Hg4 mi
6:00 am66 °FFog.No wind94%29.89 "Hg3 mi
5:00 am66 °FClear.No wind94%29.86 "Hg4 mi
Weather by CustomWeather, © 2019

See weather overview